Погода в Нюнспете

Нидерланды     52°22′46″N   5°46′43″E
темп.,
°C
ветер,
м/с
пор.,
м/с
влажн.,
%
обл.,
%
осадки,
мм/ч
давл.,
гПа
погр.,
м
20 апреля, вт
вт2023:00+8в33815 0.0 102039
02:00+7вюв22845 0.0 101913
05:00+8св127999 0.0 101911
08:00+9св238338 0.0 101960
11:00+14ссв22645 0.0 1018781
14:00+16ссз325954 0.7 10171152
17:00+15ссз44616 0.9 1016992
20:00+12сз35754 0.9 101693
21 апреля, ср
ср2123:00+8ссв34794 0.0 101774
02:00+7св22798 0.0 101723
05:00+6ссв227895 0.0 101743
08:00+7с266995 0.0 1018184
11:00+10ссв6777100 0.0 1019837
14:00+12с6660100 0.0 10191361
17:00+10с77518 0.0 10201346
20:00+7с696563 0.0 1021842
22 апреля, чт
чт2223:00+3с3868100 0.0 1023197
02:00+3ссз237055 0.0 102348
05:00+3сз2575100 0.0 102368
08:00+6ссз497172 0.0 1024781
11:00+8ссз6860100 0.0 10251565
14:00+9сз7858100 0.1 10251637
17:00+9сз78617 0.1 10261388
20:00+7ссз59745 0.1 1026655
23 апреля, пт
пт2323:00+5ссз39865 0.0 1027197
02:00+4ссз35895 0.0 1027100
05:00+4ссз25905 0.0 102867
08:00+6ссз27835 0.0 1029393
11:00+10ссз566217 0.0 10291349
14:00+12сз66595 0.1 10291411
17:00+11сз66615 0.0 10291080
20:00+8ссз47745 0.0 1030296
24 апреля, сб
сб2423:00+4с33895 0.0 103054
02:00+3с22925 0.0 103028
05:00+3с229344 0.0 102916
08:00+6ссз2485100 0.0 1029134
11:00+9сз4571100 0.0 1029722
14:00+10сз6769100 0.0 1029914
17:00+11ссз5664100 0.1 10281296
20:00+8с57713 0.1 1028426